Miscellaneous Local Product
Issued by NWS Hastings, NE

Home | Current Version | Previous Version | Text Only | Print | Product List | Glossary Off
Versions: 1 2 3 4 5 6 7 8 9 10 11 12 13 14 15 16 17 18 19 20 21 22 23 24 25 26 27 28 29 30 31 32 33 34 35 36 37 38 39 40 41 42 43 44 45 46 47 48 49 50

000
AXUS43 KGID 272002
MISGRI

GID CWA HOURLY WEATHER ROUNDUP
NATIONAL WEATHER SERVICE HASTINGS NE
300 PM CDT WED AUG 27 2014

NOTE: "FAIR" INDICATES FEW OR NO CLOUDS BELOW 12,000 FEET WITH NO
SIGNIFICANT WEATHER AND/OR OBSTRUCTIONS TO VISIBILITY.

...SOUTH CENTRAL NEBRASKA...

CITY           SKY/WX    TMP DP  RH WIND       PRES   REMARKS
GRAND ISLAND   PTSUNNY   78  68  71 SE12      30.11F
HASTINGS       CLOUDY    75  66  73 SE10      30.10F
KEARNEY        CLOUDY    75  68  78 E13       30.11F
ORD            CLOUDY    70  66  87 SE10      30.10F
YORK           CLOUDY    75 N/A N/A SE10      30.11F
AURORA         PTSUNNY   78  71  80 SE15      30.11S
LEXINGTON      CLOUDY    75  69  81 E14       30.10F
HOLDREGE       LGT RAIN  72  68  86 E12G21    30.10F
HEBRON         CLOUDY    80  69  69 E8        30.08F

...NEBRASKA PANHANDLE...

CITY           SKY/WX    TMP DP  RH WIND       PRES   REMARKS
CHADRON        CLOUDY    75  62  64 N13       30.06F
ALLIANCE       CLOUDY    75  61  61 S13       30.09S
SCOTTSBLUFF    CLOUDY    62  62 100 NW8       30.13S
SIDNEY         PTSUNNY   78  59  51 S12       30.10F

...WESTERN AND NORTH CENTRAL NEBRASKA...

CITY           SKY/WX    TMP DP  RH WIND       PRES   REMARKS
VALENTINE      PTSUNNY   77  64  64 SE13      30.09F
AINSWORTH      PTSUNNY   74  65  75 SE14      30.11F
ONEILL         CLOUDY    73  67  83 S10       30.12S
BROKEN BOW     CLOUDY    72  66  81 SE12G22   30.12F
IMPERIAL       PTSUNNY   77  66  68 SE9       30.06F
NORTH PLATTE   LGT RAIN  70  67  90 E16       30.09F
MCCOOK         CLOUDY    79  66  64 E13       30.07F

...EASTERN NEBRASKA...

CITY           SKY/WX    TMP DP  RH WIND       PRES   REMARKS
NORFOLK        CLOUDY    71  67  87 SE8       30.11F
SO SIOUX CITY  CLOUDY    71  67  87 S8        30.13F
TEKAMAH        CLOUDY    72  69  90 SE8       30.10F
COLUMBUS       CLOUDY    73  66  78 SE9       30.11F
ALBION         CLOUDY    73  67  81 S13       30.11S
OMAHA EPPLEY   LGT RAIN  71  68  90 S9        30.08F
OFFUTT AFB     PTSUNNY   71  71 100 SE5       30.08F
MILLARD        CLOUDY    72  69  90 SE5       30.08F
LINCOLN        CLOUDY    73  69  87 S9        30.12F
NEBRASKA CITY  CLOUDY    73  72  95 CALM      30.11F
BEATRICE       CLOUDY    79  72  78 E5        30.11S
FALLS CITY     PTSUNNY   79  71  76 E5        30.10F

...NORTHERN KANSAS...

CITY           SKY/WX    TMP DP  RH WIND       PRES   REMARKS
GOODLAND       PTSUNNY   78  64  61 S13       30.10F
HILL CITY      CLOUDY    82  65  56 SE10      30.05F
NORTON         CLOUDY    81  57  44 E12       30.06F
PHILLIPSBURG   RAIN      81  64  57 E13       30.07F
SMITH CENTER   CLOUDY    75  72  88 E12       30.08F
BELOIT         CLOUDY    82  68  61 S7        30.06F
HAYS           MOSUNNY   81  64  57 SE18      30.07F
RUSSELL        PTSUNNY   79  64  60 SE13      30.08F
CONCORDIA      CLOUDY    79  74  84 E9        30.08F
SALINA         CLOUDY    86  65  49 NW6       30.07F
TOPEKA         MOSUNNY   87  72  60 NE10      30.07F HX  93



USA.gov is the U.S. government's official web portal to all federal, state and local government web resources and services.